Regional Weather Roundup
Issued by NWS

Home | Current Version | Previous Version | Graphics & Text | Print | Product List | Glossary On
Versions: 1 2 3 4 5 6 7 8 9 10 11 12 13 14 15 16 17 18 19 20 21 22 23 24 25 26 27 28 29 30 31 32 33 34 35 36 37 38 39 40 41 42 43 44 45 46 47 48 49 50
000
ASUS45 KBOI 300110
RWRID

IDAHO REGIONAL WEATHER ROUNDUP
NATIONAL WEATHER SERVICE BOISE ID
700 PM MDT WED JUL 29 2015

NOTE: "FAIR" INDICATES FEW OR NO CLOUDS BELOW 12000 FEET
WITH NO SIGNIFICANT WEATHER AND/OR OBSTRUCTIONS TO VISIBILITY

IDZ012-014-300200-
SOUTHWEST IDAHO


CITY           SKY/WX    TMP DP  RH WIND       PRES   REMARKS
BOISE          SUNNY     88  29  12 NW6       30.13F
CALDWELL       SUNNY     88  36  15 N7        30.13F
MOUNTAIN HOME  SUNNY     88  23   9 VRB2      30.13F
$$

IDZ016-017-300200-
SOUTHCENTRAL IDAHO


CITY           SKY/WX    TMP DP  RH WIND       PRES   REMARKS
BURLEY         SUNNY     83  35  18 N5        30.20F
JEROME         SUNNY     82  30  15 NW3       30.21S
TWIN FALLS     SUNNY     84  28  13 NW9       30.19S
$$

IDZ019>023-300200-
SOUTHEAST IDAHO


CITY           SKY/WX    TMP DP  RH WIND       PRES   REMARKS
IDAHO FALLS    SUNNY     80  32  17 VRB3      30.27F
POCATELLO      MOSUNNY   81  37  20 NW7       30.25F
REXBURG        SUNNY     77  32  19 CALM      30.28F
$$

IDZ006-010-011-018-031-032-300200-
CENTRAL IDAHO MOUNTAINS


CITY           SKY/WX    TMP DP  RH WIND       PRES   REMARKS
MCCALL         SUNNY     77  32  19 S7        30.26F
HAILEY         MOSUNNY   75  39  27 SE10      30.29S
STANLEY          N/A     76  28  17 NW12G20   30.34F
SALMON         SUNNY     81  45  28 N6        30.17F
CHALLIS        SUNNY     82  38  20 NW5       30.23F
$$

IDZ002-004-006-007-026-300200-
NORTHERN IDAHO


CITY           SKY/WX    TMP DP  RH WIND       PRES   REMARKS
LEWISTON       SUNNY     93  33  12 E3        30.07F
LOWELL           N/A     77  49  37 N3        30.08S
COEUR D`ALENE  FAIR      86  34  15 SW12      30.11F
MULLAN PASS    SUNNY     70  35  27 CALM      30.34F
$$



USA.gov is the U.S. government's official web portal to all federal, state and local government web resources and services.